Location: Juzet
(42.9779°N, 0.7597°E)
Time: 18:27:27
(UTC+00:00)

ATLAS 3B R/B - Pass Details

Date: 14 July 2020
Orbit: 1021 x 1174 km, 63.8° (Epoch: 08 August)

Event Time Altitude Azimuth Distance (km) Brightness Sun altitude
Rises 03:54:48 0° 179° (S) 3,771 5.2 -6.3°
Reaches altitude 10° 03:57:45 10° 169° (S) 2,811 4.7 -5.9°
Maximum altitude 04:03:16 29° 112° (ESE) 1,768 4.3 -5.1°
Drops below altitude 10° 04:08:48 10° 55° (NE) 2,818 6.9 -4.2°
Sets 04:11:44 0° 44° (NE) 3,783 7.8 -3.8°
